GW0720 Weather Reports


Display with metric or nautical units.
time (UTC)temp
F
wind
direction
speed
MPH
gust
MPH
rain 1hr
in
rain 24hr
in
rain mn
in
humidity
%
barometer
mb
20260906231657 74 0 0.0 2.0 0.00 0.00 0.00 74 1015.1
20260906231603 74 0 0.0 2.0 0.00 0.00 0.00 74 1015.1
20260906230105 75 202 0.0 3.0 0.00 0.00 0.00 73 1014.8
20260906224600 75 0 0.0 3.0 0.00 0.00 0.00 70 1014.8
20260906223108 75 260 0.0 1.0 0.00 0.00 0.00 75 1014.9
20260906221601 76 0 0.0 1.0 0.00 0.00 0.00 69 1014.7
20260906220100 77 0 0.0 2.0 0.00 0.00 0.00 67 1014.9
20260906214555 78 0 1.0 4.0 0.00 0.00 0.00 67 1014.9
20260906213054 78 0 0.0 3.0 0.00 0.00 0.00 65 1014.8
20260906211601 79 0 0.0 3.0 0.00 0.00 0.00 65 1014.9
20260906210107 79 71 0.0 3.0 0.00 0.00 0.00 65 1014.7
20260906204602 80 0 0.0 3.0 0.00 0.00 0.00 62 1014.7
20260906203100 81 105 0.0 3.0 0.00 0.00 0.00 64 1014.9
20260906201605 80 248 0.0 3.0 0.00 0.00 0.00 61 1014.9
20260906200116 81 306 1.0 9.0 0.00 0.00 0.00 57 1014.9
20260906194556 80 0 0.0 6.0 0.00 0.01 0.00 66 1014.8
20260906193059 81 0 0.0 5.0 0.00 0.01 0.00 68 1014.8
20260906191601 82 173 1.0 4.0 0.00 0.01 0.00 60 1014.8
20260906190140 80 312 0.0 4.0 0.00 0.01 0.00 63 1014.9
20260906184556 81 224 0.0 6.0 0.00 0.03 0.00 62 1015.1
20260906183110 82 229 0.0 6.0 0.00 0.03 0.00 61 1015.2
20260906181600 81 192 0.0 5.0 0.00 0.03 0.00 63 1015.5
20260906180100 82 0 0.0 7.0 0.00 0.03 0.00 59 1015.4
20260906174601 81 190 1.0 5.0 0.00 0.13 0.00 60 1015.4
20260906173105 80 0 0.0 5.0 0.00 0.13 0.00 62 1015.4
20260906171601 82 199 1.0 6.0 0.00 0.13 0.00 59 1015.6
20260906170108 81 239 0.0 3.0 0.00 0.13 0.00 63 1015.6
20260906164601 80 0 0.0 3.0 0.00 0.56 0.00 67 1015.8
20260906163105 81 306 1.0 8.0 0.00 0.56 0.00 61 1015.7
20260906161601 82 65 0.0 3.0 0.00 0.56 0.00 65 1015.7
20260906160058 82 0 0.0 3.0 0.00 0.56 0.00 59 1015.7
20260906154604 82 0 0.0 4.0 0.00 0.56 0.00 62 1016.0
20260906153102 81 58 1.0 4.0 0.00 0.56 0.00 66 1016.1
20260906151601 80 0 0.0 3.0 0.00 0.56 0.00 66 1016.0
20260906150059 79 0 1.0 4.0 0.00 0.56 0.00 69 1015.8
20260906144556 76 213 0.0 4.0 0.00 0.56 0.00 80 1015.7
20260906143055 76 0 0.0 2.0 0.00 0.56 0.00 81 1015.6
20260906141559 75 0 0.0 3.0 0.00 0.56 0.00 80 1015.7
20260906140100 74 0 0.0 1.0 0.00 0.56 0.00 83 1015.5
20260906134558 74 0 0.0 1.0 0.00 0.56 0.00 85 1015.4
20260906133118 73 0 1.0 3.0 0.00 0.56 0.00 84 1015.2
20260906131604 72 0 0.0 5.0 0.00 0.56 0.00 86 1015.0
20260906130117 72 0 0.0 1.0 0.00 0.56 0.00 88 1015.1
20260906124558 71 0 0.0 2.0 0.00 0.56 0.00 87 1015.4
20260906123056 71 238 0.0 3.0 0.00 0.56 0.00 88 1015.2
20260906121601 71 0 0.0 4.0 0.00 0.56 0.00 89 1015.1
20260906120057 70 0 0.0 0.0 0.00 0.56 0.00 92 1014.7
20260906114552 70 0 0.0 2.0 0.00 0.56 0.00 91 1014.7
20260906113104 70 0 0.0 0.0 0.00 0.56 0.00 93 1014.4
20260906111557 70 0 0.0 0.0 0.00 0.56 0.00 93 1014.3
20260906110058 70 0 0.0 1.0 0.00 0.56 0.00 93 1014.1
20260906104555 70 0 0.0 1.0 0.00 0.56 0.00 94 1014.0
20260906103102 70 0 0.0 2.0 0.00 0.56 0.00 94 1013.8
20260906101601 71 0 0.0 0.0 0.00 0.56 0.00 94 1013.6
20260906100058 71 0 0.0 1.0 0.00 0.56 0.00 94 1013.3
20260906094610 71 0 0.0 2.0 0.00 0.56 0.00 94 1013.1
20260906093112 71 0 0.0 1.0 0.00 0.56 0.00 95 1013.1
20260906091603 71 0 0.0 2.0 0.00 0.56 0.00 95 1013.0
20260906090139 71 245 0.0 3.0 0.00 0.56 0.00 95 1012.9
20260906084634 72 0 0.0 2.0 0.00 0.56 0.00 95 1012.8
20260906083104 72 0 0.0 0.0 0.00 0.56 0.00 96 1012.9
20260906081600 72 0 0.0 0.0 0.00 0.56 0.00 96 1012.8
20260906080110 72 0 0.0 0.0 0.00 0.56 0.00 96 1012.8
20260906074604 72 0 0.0 0.0 0.00 0.56 0.00 96 1012.7
20260906073056 72 0 0.0 1.0 0.00 0.56 0.00 96 1012.7
20260906071602 72 0 0.0 0.0 0.00 0.56 0.00 96 1012.5
20260906070103 72 0 0.0 1.0 0.00 0.56 0.00 96 1012.6
20260906064556 72 0 0.0 0.0 0.00 0.56 0.00 96 1012.4
20260906063056 72 0 0.0 0.0 0.00 0.56 0.00 96 1012.7
20260906061607 72 0 0.0 0.0 0.00 0.56 0.00 96 1012.7
20260906054609 72 0 0.0 1.0 0.00 0.56 0.00 96 1012.8
20260906053118 72 0 0.0 1.0 0.00 0.56 0.00 96 1012.8
20260906051601 72 0 0.0 1.0 0.00 0.56 0.00 96 1013.1
20260906050104 72 0 0.0 1.0 0.00 0.56 0.00 96 1013.0
20260906044621 72 0 0.0 1.0 0.00 0.56 0.00 96 1012.9
20260906043105 72 0 0.0 0.0 0.00 0.56 0.00 96 1013.0
20260906041608 71 0 0.0 0.0 0.00 0.56 0.00 96 1013.3
20260906040054 71 0 0.0 0.0 0.00 0.56 0.00 95 1013.1
20260906034600 71 0 0.0 0.0 0.00 0.56 0.56 95 1013.3
20260906033059 71 0 0.0 0.0 0.00 0.56 0.56 95 1013.0
20260906031557 72 0 0.0 0.0 0.00 0.56 0.56 94 1013.2
20260906030104 72 0 0.0 0.0 0.00 0.56 0.56 95 1013.1
20260906024622 72 0 0.0 0.0 0.00 0.56 0.56 94 1013.3
20260906023105 73 0 0.0 0.0 0.00 0.56 0.56 94 1013.3
20260906021600 73 0 0.0 0.0 0.00 0.56 0.56 94 1013.2
20260906020055 73 0 0.0 0.0 0.00 0.56 0.56 94 1013.2
20260906014559 74 0 0.0 0.0 0.00 0.56 0.56 94 1013.3
20260906013055 74 0 0.0 0.0 0.00 0.56 0.56 94 1013.1
20260906011559 74 0 0.0 0.0 0.00 0.56 0.56 94 1012.7
20260906010130 74 0 0.0 1.0 0.00 0.56 0.56 94 1012.4
20260906004601 74 0 0.0 0.0 0.00 0.56 0.56 93 1012.3
20260906003054 75 0 0.0 0.0 0.00 0.56 0.56 93 1012.2
20260906001604 75 0 0.0 0.0 0.00 0.56 0.56 93 1011.8
20260906000100 75 0 0.0 0.0 0.00 0.56 0.56 93 1011.6
20260905234558 75 0 0.0 0.0 0.00 0.58 0.56 93 1011.8
20260905233056 76 0 0.0 0.0 0.00 0.58 0.56 92 1011.4